GW5750 Weather Reports


Display with metric or nautical units.
time (UTC)temp
F
wind
direction
speed
MPH
gust
MPH
rain 1hr
in
rain 24hr
in
rain mn
in
humidity
%
barometer
mb
20260906003205 82 128 1.0 1.0 0.00 0.06 0.06 87 1011.8
20260906002705 82 180 1.0 2.0 0.00 0.06 0.06 86 1011.9
20260906002200 82 302 1.0 1.0 0.00 0.06 0.06 86 1011.9
20260906001655 82 336 1.0 1.0 0.00 0.06 0.06 86 1011.9
20260906001155 83 16 0.0 0.0 0.00 0.06 0.06 86 1011.8
20260906000651 83 304 1.0 1.0 0.00 0.06 0.06 85 1012.0
20260906000146 83 212 2.0 3.0 0.00 0.06 0.06 84 1011.8
20260905235645 84 260 1.0 2.0 0.00 0.06 0.06 83 1012.0
20260905235140 84 229 0.0 0.0 0.00 0.06 0.06 83 1011.8
20260905234636 84 177 2.0 2.0 0.00 0.06 0.06 82 1011.8
20260905234131 84 149 3.0 4.0 0.00 0.06 0.06 83 1011.7
20260905233626 84 306 1.0 1.0 0.00 0.06 0.06 83 1011.7
20260905233125 84 302 2.0 2.0 0.00 0.06 0.06 82 1011.8
20260905232621 84 181 2.0 3.0 0.00 0.06 0.06 82 1011.9
20260905232117 85 290 2.0 2.0 0.00 0.06 0.06 82 1011.6
20260905231617 85 229 3.0 3.0 0.00 0.06 0.06 82 1012.0
20260905231113 85 312 1.0 1.0 0.00 0.06 0.06 81 1011.7
20260905230609 85 290 1.0 1.0 0.00 0.06 0.06 80 1011.7
20260905230107 86 203 1.0 1.0 0.00 0.06 0.06 80 1011.7
20260905225606 86 215 2.0 3.0 0.00 0.06 0.06 78 1011.8
20260905225102 86 211 2.0 2.0 0.00 0.06 0.06 78 1011.6
20260905224601 86 234 0.0 1.0 0.00 0.06 0.06 77 1011.8
20260905224101 86 332 1.0 1.0 0.00 0.06 0.06 75 1011.8
20260905223558 86 211 0.0 1.0 0.00 0.06 0.06 76 1011.7
20260905223054 87 275 3.0 4.0 0.00 0.06 0.06 76 1011.9
20260905222554 87 238 2.0 3.0 0.00 0.06 0.06 75 1012.0
20260905222049 88 260 3.0 3.0 0.00 0.06 0.06 74 1011.9
20260905221546 88 237 2.0 2.0 0.00 0.06 0.06 73 1012.0
20260905221042 88 249 2.0 2.0 0.00 0.06 0.06 74 1012.0
20260905220537 89 210 2.0 2.0 0.00 0.06 0.06 73 1012.0
20260905220033 89 258 1.0 2.0 0.00 0.06 0.06 74 1012.1
20260905215532 89 275 2.0 2.0 0.00 0.06 0.06 72 1012.2
20260905215029 88 289 1.0 2.0 0.00 0.06 0.06 72 1012.0
20260905214524 88 206 1.0 2.0 0.00 0.06 0.06 72 1012.2
20260905214019 88 207 2.0 2.0 0.00 0.06 0.06 72 1012.3
20260905213514 88 16 1.0 1.0 0.00 0.06 0.06 70 1012.4
20260905213010 88 29 1.0 1.0 0.00 0.06 0.06 70 1012.4
20260905212505 88 338 0.0 0.0 0.00 0.06 0.06 69 1012.6
20260905212004 89 278 2.0 2.0 0.00 0.06 0.06 71 1012.3
20260905211459 92 8 0.0 0.0 0.00 0.06 0.06 66 1012.3
20260905210955 91 335 0.0 1.0 0.00 0.06 0.06 66 1012.5
20260905210451 89 335 0.0 0.0 0.00 0.06 0.06 73 1012.6
20260905205950 89 23 0.0 0.0 0.00 0.06 0.06 69 1012.4
20260905205445 86 296 0.0 1.0 0.00 0.06 0.06 75 1012.4
20260905204943 85 317 1.0 2.0 0.00 0.06 0.06 77 1012.4
20260905204439 83 324 1.0 2.0 0.00 0.06 0.06 84 1012.4
20260905203938 82 14 1.0 2.0 0.00 0.06 0.06 87 1012.3
20260905203434 82 175 2.0 2.0 0.00 0.06 0.06 87 1012.4
20260905202930 80 325 1.0 1.0 0.00 0.06 0.06 89 1012.5
20260905202425 80 262 2.0 2.0 0.00 0.06 0.06 89 1012.4
20260905201920 80 260 3.0 3.0 0.00 0.06 0.06 87 1012.6
20260905201416 80 32 0.0 0.0 0.00 0.06 0.06 89 1013.0
20260905200915 80 19 1.0 2.0 0.00 0.06 0.06 89 1013.0
20260905200411 81 221 1.0 2.0 0.00 0.06 0.06 89 1013.2
20260905195909 81 31 2.0 2.0 0.00 0.06 0.06 88 1013.1
20260905195404 81 36 1.0 1.0 0.00 0.06 0.06 87 1013.1
20260905194900 81 29 2.0 2.0 0.00 0.06 0.06 87 1013.1
20260905194359 81 40 1.0 2.0 0.00 0.06 0.06 87 1013.0
20260905193859 82 353 2.0 3.0 0.00 0.06 0.06 86 1013.1
20260905193354 82 24 3.0 4.0 0.00 0.06 0.06 85 1013.2
20260905192850 84 54 2.0 3.0 0.00 0.06 0.06 83 1013.3
20260905192345 85 80 0.0 1.0 0.00 0.06 0.06 83 1013.2
20260905191845 86 102 0.0 1.0 0.00 0.06 0.06 81 1013.2
20260905191344 87 45 1.0 2.0 0.00 0.06 0.06 78 1013.1
20260905190843 87 122 1.0 1.0 0.00 0.06 0.06 79 1013.1
20260905190342 86 41 1.0 1.0 0.00 0.06 0.06 81 1013.2
20260905185841 86 41 0.0 0.0 0.00 0.06 0.06 83 1013.4
20260905185337 85 49 1.0 2.0 0.00 0.06 0.06 83 1013.4
20260905184835 84 84 1.0 2.0 0.00 0.06 0.06 84 1013.4
20260905184335 84 16 2.0 3.0 0.00 0.06 0.06 84 1013.5
20260905183833 84 35 2.0 3.0 0.00 0.06 0.06 84 1013.7
20260905183329 84 24 2.0 3.0 0.00 0.06 0.06 89 1013.7
20260905182824 83 18 2.0 3.0 0.00 0.06 0.06 85 1013.7
20260905182323 84 16 3.0 4.0 0.24 0.06 0.06 86 1013.8
20260905181819 84 24 2.0 2.0 0.35 0.06 0.06 87 1013.8
20260905181318 86 35 2.0 2.0 0.24 0.04 0.04 82 1013.8
20260905180817 87 67 2.0 3.0 0.00 0.00 0.00 77 1013.9
20260905180313 88 9 1.0 1.0 0.00 0.00 0.00 74 1014.1
20260905175808 89 303 1.0 1.0 0.00 0.00 0.00 72 1014.0
20260905175306 89 302 1.0 1.0 0.00 0.00 0.00 72 1013.9
20260905174757 89 27 1.0 1.0 0.00 0.00 0.00 70 1014.0
20260905174253 89 34 2.0 3.0 0.00 0.00 0.00 70 1014.1
20260905173749 89 31 2.0 2.0 0.00 0.00 0.00 70 1014.0
20260905173245 89 35 1.0 1.0 0.00 0.00 0.00 71 1014.0
20260905172744 89 297 2.0 2.0 0.00 0.00 0.00 71 1014.0
20260905172243 89 24 0.0 1.0 0.00 0.00 0.00 70 1014.1
20260905171740 89 22 3.0 3.0 0.00 0.00 0.00 71 1014.1
20260905171236 90 16 2.0 2.0 0.00 0.00 0.00 70 1014.3
20260905170732 91 18 1.0 2.0 0.00 0.00 0.00 70 1014.3
20260905170228 90 46 2.0 3.0 0.00 0.00 0.00 73 1014.3
20260905165727 91 239 2.0 3.0 0.00 0.00 0.00 69 1014.2
20260905165222 92 22 3.0 4.0 0.00 0.00 0.00 69 1014.4
20260905164722 92 12 2.0 2.0 0.00 0.00 0.00 70 1014.3
20260905164216 91 24 2.0 3.0 0.00 0.00 0.00 71 1014.4
20260905163712 91 227 3.0 3.0 0.00 0.00 0.00 69 1014.6
20260905163209 90 87 0.0 0.0 0.00 0.00 0.00 76 1014.5
20260905162704 89 302 3.0 4.0 0.00 0.00 0.00 73 1014.6
20260905162204 90 227 1.0 2.0 0.00 0.00 0.00 71 1014.4
20260905161659 91 338 3.0 3.0 0.00 0.00 0.00 72 1014.4
20260905161157 90 155 2.0 2.0 0.00 0.00 0.00 72 1014.5
20260905160656 91 299 2.0 3.0 0.00 0.00 0.00 69 1014.6
20260905160155 91 260 2.0 3.0 0.00 0.00 0.00 67 1014.5
20260905155650 91 302 2.0 2.0 0.00 0.00 0.00 70 1014.8
20260905155149 90 11 2.0 2.0 0.00 0.00 0.00 69 1014.7
20260905154643 89 45 0.0 0.0 0.00 0.00 0.00 74 1014.5
20260905154139 90 147 3.0 4.0 0.00 0.00 0.00 72 1014.6
20260905153634 90 263 3.0 4.0 0.00 0.00 0.00 71 1014.4
20260905153130 89 353 3.0 4.0 0.00 0.00 0.00 70 1014.5
20260905152625 89 228 4.0 4.0 0.00 0.00 0.00 72 1014.5
20260905152119 90 269 2.0 2.0 0.00 0.00 0.00 72 1014.5
20260905151614 89 57 0.0 0.0 0.00 0.00 0.00 76 1014.6
20260905151110 88 225 1.0 3.0 0.00 0.00 0.00 75 1014.5
20260905150605 89 126 2.0 2.0 0.00 0.00 0.00 73 1014.5
20260905150103 88 89 1.0 1.0 0.00 0.00 0.00 74 1014.6
20260905145602 87 62 0.0 1.0 0.00 0.00 0.00 78 1014.6
20260905145101 88 232 3.0 3.0 0.00 0.00 0.00 74 1014.5
20260905144557 88 83 2.0 3.0 0.00 0.00 0.00 75 1014.6
20260905144055 87 66 0.0 0.0 0.00 0.00 0.00 79 1014.7
20260905143555 86 335 1.0 2.0 0.00 0.00 0.00 81 1014.5
20260905143050 86 313 2.0 2.0 0.00 0.00 0.00 82 1014.5
20260905142550 85 19 0.0 1.0 0.00 0.00 0.00 84 1014.6
20260905142049 85 359 1.0 1.0 0.00 0.00 0.00 83 1014.4
20260905141544 87 155 2.0 2.0 0.00 0.00 0.00 80 1014.5
20260905141041 87 75 0.0 0.0 0.00 0.00 0.00 82 1014.5
20260905140541 87 358 1.0 1.0 0.00 0.00 0.00 81 1014.2
20260905140040 86 49 1.0 1.0 0.00 0.00 0.00 84 1014.3
20260905135536 86 45 0.0 1.0 0.00 0.00 0.00 83 1014.4
20260905135037 86 49 0.0 0.0 0.00 0.00 0.00 84 1014.1
20260905134537 85 46 1.0 1.0 0.00 0.00 0.00 87 1014.2
20260905134035 84 51 1.0 1.0 0.00 0.00 0.00 88 1014.4
20260905133531 84 47 1.0 1.0 0.00 0.00 0.00 88 1014.3
20260905133030 84 57 2.0 2.0 0.00 0.00 0.00 90 1014.1
20260905132530 83 38 2.0 2.0 0.00 0.00 0.00 90 1014.3
20260905132025 83 46 1.0 1.0 0.00 0.00 0.00 90 1014.3
20260905131521 83 38 2.0 2.0 0.00 0.00 0.00 90 1014.5
20260905131016 82 40 0.0 0.0 0.00 0.00 0.00 91 1014.3
20260905130515 82 51 0.0 1.0 0.00 0.00 0.00 90 1014.2
20260905130010 82 49 0.0 0.0 0.00 0.00 0.00 91 1014.3
20260905125504 81 51 0.0 0.0 0.00 0.00 0.00 92 1014.3
20260905125000 81 39 0.0 1.0 0.00 0.00 0.00 93 1014.2
20260905124456 81 55 1.0 1.0 0.00 0.00 0.00 94 1014.2
20260905123952 80 60 1.0 1.0 0.00 0.00 0.00 96 1014.1
20260905123448 79 50 0.0 0.0 0.00 0.00 0.00 97 1014.2
20260905122949 78 47 1.0 2.0 0.00 0.00 0.00 97 1014.2
20260905122448 78 46 1.0 1.0 0.00 0.00 0.00 98 1014.1
20260905121944 77 48 0.0 0.0 0.00 0.00 0.00 99 1014.0
20260905121439 77 48 1.0 1.0 0.00 0.00 0.00 99 1013.9
20260905120938 77 48 0.0 1.0 0.00 0.00 0.00 99 1013.9
20260905120433 76 48 0.0 0.0 0.00 0.00 0.00 99 1013.8
20260905115928 76 49 0.0 0.0 0.00 0.00 0.00 99 1014.0
20260905115427 76 49 0.0 0.0 0.00 0.00 0.00 99 1013.8
20260905114923 75 49 0.0 0.0 0.00 0.00 0.00 99 1013.8
20260905114422 75 49 0.0 0.0 0.00 0.00 0.00 99 1013.8
20260905113921 75 49 0.0 0.0 0.00 0.00 0.00 99 1013.8
20260905113417 75 49 0.0 0.0 0.00 0.00 0.00 99 1013.9
20260905112912 75 49 1.0 1.0 0.00 0.00 0.00 99 1013.6
20260905112407 75 49 0.0 1.0 0.00 0.00 0.00 99 1013.5
20260905111903 75 46 0.0 0.0 0.00 0.00 0.00 99 1013.5
20260905111402 75 46 0.0 0.0 0.00 0.00 0.00 99 1013.6
20260905110901 75 46 0.0 0.0 0.00 0.00 0.00 99 1013.5
20260905110355 75 46 0.0 0.0 0.00 0.00 0.00 99 1013.5
20260905105852 75 46 0.0 1.0 0.00 0.00 0.00 99 1013.4
20260905105351 75 46 0.0 0.0 0.00 0.00 0.00 99 1013.5
20260905104850 75 45 0.0 0.0 0.00 0.00 0.00 99 1013.6
20260905104347 75 45 0.0 0.0 0.00 0.00 0.00 99 1013.6
20260905103846 75 46 0.0 1.0 0.00 0.00 0.00 99 1013.5
20260905103342 75 45 0.0 0.0 0.00 0.00 0.00 99 1013.3
20260905102837 75 46 0.0 1.0 0.00 0.00 0.00 99 1013.5
20260905102335 75 46 1.0 1.0 0.00 0.00 0.00 99 1013.4
20260905101834 75 44 0.0 1.0 0.00 0.00 0.00 99 1013.4
20260905101332 75 45 0.0 1.0 0.00 0.00 0.00 99 1013.3
20260905100827 75 42 1.0 1.0 0.00 0.00 0.00 99 1013.3
20260905100324 75 44 0.0 0.0 0.00 0.00 0.00 99 1013.2
20260905095823 75 44 0.0 0.0 0.00 0.00 0.00 99 1013.3
20260905095322 75 44 0.0 0.0 0.00 0.00 0.00 99 1013.5
20260905094817 75 44 0.0 1.0 0.00 0.00 0.00 99 1013.4
20260905094313 75 44 0.0 0.0 0.00 0.00 0.00 99 1013.4
20260905093812 75 44 0.0 0.0 0.00 0.00 0.00 99 1013.5
20260905093308 75 44 0.0 0.0 0.00 0.00 0.00 99 1013.3
20260905092803 75 44 0.0 0.0 0.00 0.00 0.00 99 1013.2
20260905092258 75 44 0.0 0.0 0.00 0.00 0.00 99 1013.3
20260905091758 75 44 0.0 0.0 0.00 0.00 0.00 99 1013.5
20260905091258 75 44 1.0 1.0 0.00 0.00 0.00 99 1013.2
20260905090757 75 44 0.0 0.0 0.00 0.00 0.00 99 1013.3
20260905090253 75 44 0.0 0.0 0.00 0.00 0.00 99 1013.3
20260905085752 75 44 0.0 1.0 0.00 0.00 0.00 99 1013.3
20260905085252 75 44 0.0 1.0 0.00 0.00 0.00 99 1013.2
20260905084747 75 44 1.0 1.0 0.00 0.00 0.00 99 1013.4
20260905084242 75 44 0.0 0.0 0.00 0.00 0.00 99 1013.3
20260905083737 75 44 0.0 0.0 0.00 0.00 0.00 99 1013.0
20260905083232 75 44 0.0 0.0 0.00 0.00 0.00 99 1013.0
20260905082728 75 44 1.0 1.0 0.00 0.00 0.00 99 1013.1
20260905082224 75 43 0.0 0.0 0.00 0.00 0.00 99 1013.3
20260905081723 75 43 1.0 1.0 0.00 0.00 0.00 99 1013.1
20260905081219 75 43 0.0 0.0 0.00 0.00 0.00 99 1013.0
20260905080719 75 43 0.0 0.0 0.00 0.00 0.00 99 1013.0
20260905080219 75 43 0.0 0.0 0.00 0.00 0.00 99 1013.0
20260905075718 75 43 0.0 1.0 0.00 0.00 0.00 99 1013.1
20260905075217 75 43 0.0 0.0 0.00 0.00 0.00 99 1013.2
20260905074716 75 45 1.0 1.0 0.00 0.00 0.00 99 1013.2
20260905074212 75 33 1.0 1.0 0.00 0.00 0.00 99 1013.3
20260905073708 75 33 0.0 0.0 0.00 0.00 0.00 99 1013.2
20260905073203 75 33 0.0 0.0 0.00 0.00 0.00 99 1013.1
20260905072702 75 33 0.0 0.0 0.00 0.00 0.00 99 1013.1
20260905072157 75 33 0.0 1.0 0.00 0.00 0.00 99 1013.3
20260905071654 75 34 1.0 2.0 0.00 0.00 0.00 99 1013.1
20260905071149 75 45 0.0 1.0 0.00 0.00 0.00 99 1013.2
20260905070644 75 45 0.0 0.0 0.00 0.00 0.00 99 1013.0
20260905070140 75 45 0.0 0.0 0.00 0.00 0.00 99 1013.1
20260905065638 75 45 0.0 0.0 0.00 0.00 0.00 98 1013.0
20260905065133 75 45 0.0 0.0 0.00 0.00 0.00 98 1013.2
20260905064628 75 45 0.0 0.0 0.00 0.00 0.00 98 1013.2
20260905064124 76 44 1.0 1.0 0.00 0.00 0.00 98 1013.1
20260905063622 76 45 1.0 1.0 0.00 0.00 0.00 98 1013.0
20260905063119 76 45 1.0 1.0 0.00 0.00 0.00 98 1012.8
20260905062615 76 45 0.0 0.0 0.00 0.00 0.00 98 1012.8
20260905062114 76 45 0.0 0.0 0.00 0.00 0.00 98 1013.0
20260905061609 76 45 0.0 0.0 0.00 0.00 0.00 98 1013.0
20260905061108 76 45 0.0 0.0 0.00 0.00 0.00 98 1013.0
20260905060604 76 45 0.0 0.0 0.00 0.00 0.00 98 1013.3
20260905060100 76 45 0.0 0.0 0.00 0.00 0.00 98 1013.2
20260905055558 76 45 0.0 0.0 0.00 0.00 0.00 98 1013.1
20260905055054 76 40 0.0 1.0 0.00 0.00 0.00 98 1013.1
20260905054549 76 40 0.0 0.0 0.00 0.00 0.00 98 1013.1
20260905054044 76 28 0.0 1.0 0.00 0.00 0.00 98 1013.1
20260905053544 76 38 1.0 1.0 0.00 0.00 0.00 98 1013.2
20260905053040 76 38 0.0 0.0 0.00 0.00 0.00 98 1013.2
20260905052539 76 39 0.0 0.0 0.00 0.00 0.00 98 1013.2
20260905052034 77 39 0.0 0.0 0.00 0.00 0.00 98 1013.1
20260905051529 77 38 0.0 0.0 0.00 0.00 0.00 98 1013.4
20260905051026 77 39 0.0 0.0 0.00 0.00 0.00 98 1013.4
20260905050522 76 39 0.0 0.0 0.00 0.00 0.00 98 1013.6
20260905050019 76 38 0.0 0.0 0.00 0.06 0.06 98 1013.6
20260905045513 77 38 0.0 0.0 0.00 0.06 0.06 98 1013.8
20260905045009 77 38 0.0 0.0 0.00 0.06 0.06 98 1013.8
20260905044509 77 38 0.0 0.0 0.00 0.06 0.06 98 1013.9
20260905044009 77 39 0.0 0.0 0.00 0.06 0.06 98 1014.0
20260905043508 77 39 0.0 0.0 0.00 0.06 0.06 98 1014.1
20260905043003 77 39 0.0 0.0 0.00 0.06 0.06 98 1014.0
20260905042502 77 39 0.0 0.0 0.00 0.06 0.06 98 1014.0
20260905041957 77 38 0.0 1.0 0.00 0.06 0.06 98 1014.0
20260905041453 77 38 0.0 0.0 0.00 0.06 0.06 98 1014.1
20260905040948 77 38 1.0 1.0 0.00 0.06 0.06 98 1014.0
20260905040448 77 41 0.0 1.0 0.00 0.06 0.06 98 1013.9
20260905035947 77 37 1.0 2.0 0.00 0.06 0.06 98 1014.2
20260905035442 77 45 0.0 0.0 0.00 0.06 0.06 97 1014.1
20260905034940 77 46 0.0 1.0 0.00 0.06 0.06 97 1014.3
20260905034435 77 43 1.0 1.0 0.00 0.06 0.06 97 1014.3
20260905033933 77 33 1.0 1.0 0.00 0.06 0.06 97 1014.4
20260905033428 77 37 0.0 1.0 0.00 0.06 0.06 97 1014.4
20260905032928 77 39 1.0 1.0 0.00 0.06 0.06 97 1014.5
20260905032424 77 39 1.0 2.0 0.00 0.06 0.06 97 1014.4
20260905031918 77 40 1.0 1.0 0.00 0.06 0.06 97 1014.1
20260905031414 77 41 0.0 0.0 0.00 0.06 0.06 97 1014.2
20260905030910 77 46 0.0 0.0 0.00 0.06 0.06 97 1014.4
20260905030405 77 44 0.0 0.0 0.00 0.06 0.06 97 1014.4
20260905025904 77 45 0.0 1.0 0.00 0.06 0.06 97 1014.4
20260905025359 77 43 0.0 0.0 0.00 0.06 0.06 97 1014.4
20260905024856 77 40 1.0 1.0 0.00 0.06 0.06 96 1014.4
20260905024356 77 44 0.0 0.0 0.00 0.06 0.06 96 1014.4
20260905023852 77 41 1.0 2.0 0.00 0.06 0.06 96 1014.5
20260905023347 77 47 1.0 1.0 0.00 0.06 0.06 96 1014.5
20260905022845 78 41 2.0 2.0 0.00 0.06 0.06 96 1014.5
20260905022341 78 40 1.0 1.0 0.00 0.06 0.06 96 1014.3
20260905021836 78 42 0.0 0.0 0.00 0.06 0.06 96 1014.3
20260905021331 78 41 0.0 1.0 0.00 0.06 0.06 96 1014.3
20260905020826 78 44 0.0 0.0 0.00 0.06 0.06 96 1014.2
20260905020321 78 35 0.0 1.0 0.00 0.06 0.06 96 1014.2
20260905015820 78 35 1.0 1.0 0.00 0.06 0.06 96 1014.1
20260905015319 78 34 0.0 0.0 0.00 0.06 0.06 96 1014.0
20260905014819 78 34 1.0 1.0 0.00 0.06 0.06 96 1014.0
20260905014314 78 34 0.0 0.0 0.00 0.06 0.06 96 1014.1
20260905013809 78 34 0.0 0.0 0.00 0.06 0.06 95 1014.0
20260905013306 78 34 0.0 0.0 0.00 0.06 0.06 95 1014.1
20260905012801 78 34 0.0 0.0 0.00 0.06 0.06 95 1013.9
20260905012256 79 18 1.0 1.0 0.00 0.06 0.06 95 1014.1
20260905011753 79 18 1.0 1.0 0.00 0.06 0.06 94 1014.1
20260905011248 79 18 0.0 0.0 0.00 0.06 0.06 94 1013.9
20260905010743 79 17 0.0 1.0 0.00 0.06 0.06 94 1014.0
20260905010238 79 18 0.0 1.0 0.00 0.06 0.06 94 1013.9
20260905005735 79 18 0.0 1.0 0.00 0.06 0.06 93 1014.0
20260905005231 80 18 1.0 1.0 0.00 0.06 0.06 92 1013.8
20260905004730 80 61 1.0 1.0 0.00 0.06 0.06 91 1013.6
20260905004225 80 62 0.0 0.0 0.00 0.06 0.06 90 1013.6
20260905003720 80 84 0.0 0.0 0.00 0.06 0.06 91 1013.7